sat.trackr.live / text

‹ back to catalog

STARLINK-37211

NORAD 68620 · 2026-073U

PAYLOAD ACTIVE UNKNOWN

§ Identity

Operator
Country
US
Launch date
2026-04-07
Launch site
AFWTR
Launch vehicle
Mass (kg)
RCS (m²)

Purposes: comms

External: N2YO · Heavens-Above · Gunter

§ Orbital elements

Epoch: 2026-09-19T18:35:02.802336Z

Period
93.90 min
Inclination
97.2887°
Eccentricity
0.0001758
Mean motion
15.33467602 rev/d
Perigee alt
464.3 km
Apogee alt
466.7 km
Semi-major
6,843.6 km
B*
5.8029e-4
RAAN
100.8675°
Arg perigee
92.5546°
Mean anomaly
267.5898°
Rev number
2,563

§ Raw data

STARLINK-372111 68620U 26073U   26262.77433799  .00018719  00000+0  58029-3 0  99992 68620  97.2887 100.8675 0001758  92.5546 267.5898 15.33467602 25632

JSON: /api/v1/satellites/68620 · /tle

For live sub-satellite position, see the globe view (requires WebGL).

§ Visibility from observer

Set your observer location to see the next 7 days of passes ≥ 10°. The values pass through the URL so the page stays shareable.

No JS? Fill the form by hand. The geolocation button needs JavaScript.